Wind_Speed
13 14 14 14 15 13 13 17 17 16 16 16 15 14 13 13 12 12 11 11 11 11 11 12 12 11 11 11 12 12 12 12 12 13 13 14 15 15 15 14 14 13 13
17 19 18 16 16 16 16 19 19 19 18 18 16 15 15 15 15 14 14 14 14 15 16 15 14 13 12 12 12 12 12 11 11 12 12 12 13 14 15 15 15 15 15
19 19 18 15 15 16 18 20 21 20 20 19 19 18 17 16 16 15 15 15 16 17 18 18 17 16 15 14 13 13 13 12 12 12 13 14 13 13 14 15 16 16 16
18 16 15 14 14 15 19 22 23 22 21 21 20 20 20 19 18 18 18 19 20 21 21 21 19 19 18 17 15 15 15 15 14 14 14 15 15 16 17 19 19 18 18
14 14 13 13 14 16 19 23 25 24 23 23 22 22 22 22 22 23 24 24 25 25 25 25 24 23 22 20 19 19 17 16 17 17 16 15 15 17 19 21 23 22 21
13 13 11 11 14 17 19 23 26 26 26 26 26 25 25 24 25 27 27 29 30 30 32 32 31 28 25 24 23 22 19 18 19 20 20 20 19 19 22 24 26 26 25
10 10 9 10 14 18 19 23 26 28 28 28 29 28 29 28 28 30 31 32 32 33 34 33 34 31 28 27 27 25 22 21 22 24 24 24 23 23 25 27 28 28 29
7 8 8 10 12 14 16 20 24 26 29 28 27 25 26 27 28 30 30 29 28 27 26 27 28 28 29 27 25 24 23 24 26 27 27 27 27 28 29 31 31 31 30
6 7 11 13 14 15 16 17 18 18 20 22 22 24 27 29 29 27 25 25 26 24 24 25 25 25 25 26 26 25 25 27 29 31 32 32 32 32 33 34 35 35 34
7 9 11 14 16 17 19 20 21 22 22 23 24 25 27 29 29 30 29 28 26 25 25 25 26 28 28 28 29 29 29 31 34 36 37 36 37 37 37 38 38 38 38
10 11 13 15 17 19 21 22 23 25 26 26 26 26 27 28 28 28 28 28 28 28 28 27 28 29 30 30 31 32 34 35 36 38 40 40 40 39 39 40 40 41 41
12 12 14 16 18 20 22 24 25 28 29 29 29 28 28 28 28 27 27 28 29 29 29 30 30 31 32 32 32 34 36 37 37 38 40 41 41 40 40 41 42 42 43
13 14 15 17 19 21 22 24 26 28 28 28 28 27 27 28 28 27 27 28 29 30 30 31 32 33 34 34 34 35 37 39 39 40 40 41 42 41 42 42 43 44 44
14 15 16 18 19 20 22 24 26 28 28 27 27 28 29 30 30 30 31 31 32 33 34 35 36 37 38 38 38 39 40 41 42 43 44 44 45 45 45 45 45 46 45
17 18 20 21 22 22 24 25 27 28 29 30 30 32 32 34 34 34 34 33 34 35 36 36 38 39 40 41 42 42 42 43 44 45 46 46 47 47 47 48 48 49 49
22 22 22 23 23 23 24 26 26 28 30 32 34 35 36 37 39 39 39 39 40 40 40 40 41 42 43 43 43 44 45 46 47 48 48 49 49 49 49 50 50 50 51
22 22 21 21 22 24 25 27 28 30 32 34 36 37 39 41 42 44 45 46 46 46 46 46 47 48 49 50 51 50 51 51 52 52 53 53 53 53 52 52 52 52 52
22 22 21 20 22 25 28 29 30 32 33 35 37 37 38 39 42 44 45 47 48 50 52 53 55 56 57 57 58 59 59 60 60 60 61 61 60 60 59 59 57 57 57
25 25 24 22 24 27 29 29 29 30 33 34 35 36 38 41 43 45 47 49 52 55 57 58 58 59 60 61 62 63 63 63 63 64 64 65 66 67 65 67 66 64 63
30 30 29 28 28 31 30 28 29 30 32 33 35 39 42 45 47 49 51 53 55 57 57 58 58 60 62 63 64 64 64 64 64 64 63 63 65 65 64 66 69 70 70
34 34 33 32 31 35 34 29 30 31 33 35 39 42 45 48 51 52 55 58 59 61 63 65 67 69 70 70 71 70 69 69 70 70 70 69 69 68 66 65 65 66 68
35 36 36 35 35 36 36 35 36 37 38 41 43 45 47 50 53 58 62 65 68 71 74 76 76 77 79 80 81 83 82 80 79 80 81 79 77 76 75 75 74 70 66
35 37 38 38 38 38 39 42 42 44 47 47 47 48 50 55 59 63 66 69 72 75 79 80 81 83 83 84 86 87 89 88 88 85 84 84 83 82 80 78 77 76 74
36 38 39 40 42 43 45 47 48 51 51 51 52 55 59 62 66 69 71 74 77 80 82 83 84 84 83 82 80 80 81 81 81 80 78 76 74 73 72 70 68 69 71
39 40 41 43 45 46 47 49 51 53 54 56 59 63 66 69 71 74 76 79 80 81 80 79 77 76 76 75 72 71 71 69 68 69 67 64 64 63 61 59 58 58 60
41 42 43 44 46 47 49 51 53 56 59 62 65 68 71 74 76 78 80 82 81 79 77 74 71 70 69 68 66 66 67 67 65 65 65 61 60 60 59 57 54 53 52
Wind_Direction
302 305 293 282 274 277 258 240 239 243 246 249 252 253 250 246 239 235 237 241 246 247 246 244 240 235 233 235 239 245 252 261 268 274 278 279 280 281 281 283 287 290 289
300 304 298 283 273 268 257 240 237 239 239 238 238 239 242 243 244 243 244 246 247 247 246 243 240 237 235 235 239 241 245 251 259 268 273 279 283 284 281 277 277 279 279
294 299 294 280 270 262 255 247 239 236 234 232 229 230 233 236 241 245 248 251 251 250 247 242 237 234 233 234 237 239 242 244 249 259 266 273 279 283 283 280 277 274 272
286 288 283 270 259 249 244 245 240 234 233 231 230 231 232 234 238 244 249 252 254 252 249 244 238 236 237 238 240 242 245 247 249 256 266 271 274 276 280 283 284 281 276
276 281 284 270 255 244 237 240 240 237 234 233 234 238 239 240 242 246 251 254 254 253 251 246 241 239 240 242 244 245 248 251 254 257 265 271 277 278 276 277 279 279 277
273 278 280 266 249 239 233 235 238 240 236 235 237 241 245 247 249 250 254 258 257 255 254 249 242 239 241 245 246 246 249 256 262 266 270 273 279 285 284 280 278 277 274
281 273 261 251 246 241 241 240 241 240 239 240 242 245 250 253 254 255 256 261 262 258 257 254 246 244 246 249 250 245 245 253 264 269 273 275 279 283 286 284 280 279 274
277 258 249 248 247 248 256 250 248 247 242 243 251 257 262 263 262 263 265 270 271 273 272 265 258 256 254 257 263 263 261 262 267 271 273 273 275 277 278 278 278 279 278
269 253 248 251 255 261 269 273 273 270 264 264 268 270 274 278 282 282 283 285 284 282 281 278 274 275 276 277 277 279 274 275 276 276 275 272 270 272 273 273 273 275 277
272 267 261 255 259 263 267 270 273 277 281 284 284 283 283 284 286 288 290 291 290 289 286 285 284 285 288 288 288 289 285 281 279 278 277 275 274 274 274 272 270 272 275
271 271 271 266 264 266 268 271 274 276 277 278 281 283 283 282 281 283 284 285 284 283 281 280 281 282 284 284 283 282 282 280 278 278 277 277 277 277 276 274 272 271 273
272 271 272 273 271 270 271 272 273 274 275 276 280 283 283 282 281 282 283 282 280 279 278 278 279 280 280 279 279 279 279 278 277 276 277 277 276 276 276 275 273 272 272
272 274 276 275 274 272 271 272 272 273 275 278 280 280 280 280 281 280 280 279 279 279 279 278 278 278 278 277 276 275 276 277 277 276 277 277 277 276 276 276 275 274 274
273 275 273 271 271 271 272 272 273 276 279 280 281 281 281 282 281 280 280 279 279 279 279 278 277 276 275 273 273 273 274 275 276 277 276 276 275 275 274 275 275 275 274
278 277 275 274 274 273 273 273 274 276 279 282 284 286 286 286 285 284 283 283 281 280 279 278 277 277 277 278 278 278 277 276 276 275 276 275 274 273 272 272 272 272 271
284 280 278 277 279 279 280 280 278 276 276 278 280 282 283 283 284 284 285 285 285 285 286 286 285 284 283 282 282 281 280 279 278 277 276 274 272 271 270 269 269 269 269
288 286 285 282 283 283 282 281 280 279 278 277 278 279 280 282 282 283 284 285 286 286 287 287 287 287 286 285 283 281 279 278 278 276 274 272 270 269 267 266 266 265 264
295 299 299 293 287 282 279 280 281 282 282 281 282 283 283 284 284 283 283 284 285 286 287 286 286 287 286 285 285 284 283 282 281 280 277 274 271 269 268 267 265 264 262
296 305 303 298 288 282 277 276 278 280 280 281 283 284 285 285 285 285 285 286 288 289 289 288 287 288 287 285 283 282 281 282 281 280 278 276 273 271 270 269 267 266 264
301 305 302 298 290 280 273 272 275 277 280 282 285 287 288 289 290 290 290 291 292 292 291 291 289 288 287 284 282 280 278 277 276 275 274 274 272 271 271 271 270 269 266
299 300 298 295 288 281 274 277 281 280 282 283 284 286 287 290 292 293 294 295 295 295 294 292 291 290 288 285 283 280 278 276 275 274 273 272 273 272 270 271 272 271 269
294 295 293 290 287 283 280 286 287 286 287 289 289 289 291 293 294 296 299 300 300 299 297 295 294 292 291 290 287 285 283 280 280 280 278 277 276 275 274 274 274 271 268
290 291 291 289 288 286 286 288 287 288 292 294 294 295 296 296 298 299 300 300 298 297 295 295 294 292 291 289 289 288 286 284 283 282 282 280 279 278 277 275 274 272 268
289 289 289 288 288 287 286 286 286 289 291 293 295 296 297 298 299 299 298 297 297 296 295 294 293 291 290 289 288 288 287 287 286 284 281 280 279 278 277 275 272 270 268
286 285 284 285 284 284 284 286 288 290 292 294 295 296 296 297 297 298 298 298 297 297 296 295 293 292 290 290 289 288 287 287 286 284 282 281 281 280 278 274 270 266 263
281 280 279 280 280 282 285 288 289 290 292 293 294 294 294 295 297 298 299 299 299 298 297 295 294 293 291 289 288 287 287 287 286 284 284 284 283 281 278 274 271 268 265
Height
5906 5905 5904 5903 5902 5901 5902 5902 5902 5901 5901 5902 5903 5903 5903 5902 5901 5901 5901 5901 5901 5901 5901 5901 5900 5899 5899 5899 5899 5899 5899 5898 5899 5899 5898 5898 5898 5898 5898 5897 5896 5896 5895
5903 5902 5901 5900 5899 5898 5898 5898 5898 5898 5898 5899 5899 5900 5900 5899 5899 5899 5899 5899 5898 5898 5897 5898 5898 5897 5896 5896 5896 5896 5896 5895 5895 5895 5895 5895 5895 5895 5895 5894 5893 5892 5892
5900 5898 5897 5896 5896 5895 5895 5895 5896 5895 5895 5895 5895 5895 5895 5895 5896 5896 5897 5896 5896 5895 5894 5894 5893 5893 5892 5892 5892 5892 5892 5892 5892 5892 5891 5891 5890 5891 5891 5890 5889 5889 5888
5896 5895 5893 5892 5891 5891 5891 5892 5892 5892 5892 5892 5892 5892 5892 5892 5892 5892 5892 5892 5892 5891 5891 5890 5889 5889 5888 5887 5887 5887 5888 5888 5888 5887 5887 5887 5886 5886 5886 5886 5886 5886 5885
5893 5892 5890 5889 5888 5888 5888 5888 5889 5889 5889 5890 5890 5890 5889 5889 5889 5888 5888 5887 5887 5886 5886 5885 5884 5883 5883 5883 5882 5882 5883 5884 5883 5883 5882 5882 5881 5881 5881 5880 5881 5881 5881
5889 5888 5887 5887 5886 5885 5884 5885 5885 5886 5886 5886 5886 5886 5886 5885 5885 5884 5883 5882 5882 5881 5880 5879 5878 5877 5877 5878 5878 5878 5878 5878 5878 5878 5877 5877 5877 5877 5877 5877 5877 5876 5876
5887 5886 5885 5885 5884 5883 5882 5882 5882 5882 5883 5882 5881 5881 5881 5880 5879 5878 5877 5877 5875 5874 5873 5872 5872 5872 5872 5872 5871 5871 5872 5872 5872 5872 5871 5871 5871 5871 5871 5871 5871 5871 5871
5884 5884 5883 5882 5882 5881 5880 5880 5879 5878 5878 5878 5877 5876 5875 5874 5874 5872 5872 5871 5870 5869 5868 5867 5867 5867 5866 5865 5865 5864 5865 5865 5865 5865 5865 5865 5866 5865 5865 5865 5865 5865 5865
5882 5882 5881 5880 5879 5878 5877 5877 5876 5875 5875 5874 5873 5872 5870 5869 5869 5867 5866 5865 5864 5863 5863 5862 5861 5860 5859 5858 5857 5857 5857 5858 5857 5858 5858 5859 5859 5858 5858 5858 5857 5857 5857
5880 5879 5878 5877 5876 5875 5875 5874 5873 5872 5871 5870 5869 5867 5866 5865 5864 5862 5861 5860 5859 5858 5857 5856 5855 5855 5853 5852 5851 5851 5851 5851 5851 5850 5850 5850 5850 5850 5850 5850 5849 5849 5849
5879 5877 5876 5875 5873 5872 5871 5870 5869 5868 5867 5866 5864 5863 5861 5860 5859 5858 5856 5855 5854 5852 5851 5850 5850 5849 5848 5847 5847 5846 5846 5845 5844 5843 5843 5842 5841 5841 5842 5842 5842 5842 5842
5877 5875 5874 5873 5871 5869 5868 5867 5866 5864 5863 5861 5859 5858 5856 5855 5853 5852 5851 5850 5848 5846 5845 5844 5843 5842 5842 5841 5840 5839 5839 5838 5837 5836 5835 5834 5834 5834 5833 5833 5834 5834 5834
5874 5873 5871 5870 5868 5867 5865 5864 5862 5860 5858 5857 5855 5853 5851 5849 5847 5846 5845 5844 5842 5841 5839 5838 5837 5836 5835 5834 5833 5832 5831 5830 5829 5828 5827 5827 5826 5826 5825 5824 5824 5824 5825
5872 5871 5869 5868 5866 5865 5863 5861 5858 5856 5854 5852 5850 5848 5845 5844 5842 5840 5838 5837 5836 5834 5833 5832 5831 5829 5828 5826 5824 5823 5821 5820 5820 5819 5818 5818 5817 5817 5816 5815 5814 5814 5814
5869 5868 5866 5865 5863 5862 5860 5858 5855 5853 5850 5847 5845 5842 5840 5838 5836 5834 5832 5830 5829 5827 5825 5824 5822 5821 5819 5817 5815 5813 5812 5810 5809 5808 5807 5806 5806 5806 5806 5805 5805 5804 5804
5865 5863 5862 5861 5859 5858 5856 5854 5851 5849 5846 5843 5840 5838 5835 5833 5830 5828 5825 5823 5820 5818 5816 5814 5813 5811 5809 5807 5805 5804 5802 5800 5799 5797 5796 5795 5794 5793 5793 5793 5793 5793 5793
5859 5858 5856 5855 5854 5852 5850 5847 5845 5842 5840 5838 5835 5833 5830 5828 5825 5822 5820 5817 5814 5811 5808 5806 5803 5801 5798 5796 5794 5792 5790 5789 5787 5785 5784 5782 5781 5779 5779 5779 5779 5780 5780
5854 5853 5851 5850 5848 5845 5842 5840 5838 5836 5834 5832 5830 5827 5824 5821 5819 5816 5814 5811 5808 5805 5802 5799 5795 5792 5789 5786 5783 5781 5778 5776 5774 5772 5770 5768 5766 5765 5764 5764 5765 5765 5766
5849 5847 5845 5844 5841 5838 5835 5833 5831 5829 5827 5825 5823 5820 5817 5814 5811 5808 5805 5802 5799 5795 5792 5789 5785 5781 5778 5774 5771 5768 5765 5762 5759 5756 5754 5752 5751 5750 5750 5748 5750 5751 5751
5843 5841 5838 5836 5833 5830 5826 5824 5823 5821 5819 5817 5815 5812 5808 5805 5801 5798 5795 5792 5788 5784 5780 5776 5773 5768 5764 5759 5757 5754 5751 5747 5743 5740 5738 5737 5735 5734 5733 5732 5732 5733 5734
5838 5835 5831 5828 5825 5821 5817 5815 5814 5813 5811 5808 5805 5802 5799 5795 5792 5788 5784 5780 5775 5770 5766 5761 5756 5752 5747 5742 5738 5736 5734 5731 5726 5722 5720 5719 5719 5717 5715 5714 5714 5714 5714
5832 5828 5824 5820 5818 5814 5810 5807 5805 5803 5801 5798 5795 5792 5788 5784 5780 5775 5771 5765 5759 5754 5747 5742 5737 5731 5726 5721 5716 5712 5710 5711 5707 5702 5698 5697 5697 5696 5696 5695 5694 5695 5697
5826 5822 5817 5813 5810 5807 5803 5800 5796 5792 5790 5787 5783 5779 5775 5771 5766 5761 5755 5750 5743 5736 5728 5722 5716 5710 5705 5701 5694 5687 5684 5684 5683 5681 5677 5675 5674 5672 5672 5671 5671 5673 5676
5819 5815 5810 5806 5802 5799 5795 5791 5787 5784 5780 5776 5771 5766 5761 5756 5751 5746 5740 5733 5726 5718 5710 5704 5696 5689 5683 5678 5673 5665 5660 5658 5657 5654 5656 5654 5652 5650 5648 5647 5647 5648 5651
5811 5807 5803 5799 5794 5790 5785 5781 5777 5773 5768 5763 5757 5752 5747 5741 5736 5729 5723 5715 5707 5699 5691 5684 5676 5669 5662 5656 5652 5647 5641 5638 5636 5630 5632 5636 5632 5630 5626 5625 5625 5627 5629
5802 5798 5795 5790 5786 5782 5777 5773 5768 5763 5757 5751 5745 5740 5734 5727 5720 5712 5704 5696 5688 5679 5671 5663 5656 5650 5643 5638 5633 5629 5624 5620 5618 5613 5611 5615 5613 5611 5606 5606 5608 5609 5610